Weather in Chernyshevka

Russia / Tambov Oblast     53°09′40″N   40°10′21″E
temp.,
°C
wind,
m/s
gust,
m/s
humid.,
%
clouds,
%
prec.,
mm/h
press.,
hPa
HPBL,
m
1 march, mon
mon100:00−7nne129690 0.1 102021
03:00−9nne239690 0.1 102221
06:00−10n229691 0.0 102421
09:00−10n239683 0.1 102672
12:00−7nw229034 0.0 1026208
15:00−5wsw349353 0.0 1025238
18:00−6wsw499561 0.0 1024163
21:00−3wsw5109469 0.0 1023527
2 march, tue
tue200:00−4wsw61294100 0.0 1020384
03:00−1wsw71394100 0.1 1017469
06:00+1wsw71392100 0.0 1014593
09:00+1w71394100 0.0 1012639
12:00+1w612100100 0.1 1010534
15:00+1wnw612100100 0.4 1009536
18:000nw41091100 0.2 1009373
21:00−2nw4109399 0.3 1009332
3 march, wed
wed300:00−3nw489193 0.1 1010172
03:00−4nw5139492 0.1 1011371
06:00−4nw7149399 0.2 1012713
09:00−5nnw7149099 0.2 1014821
12:00−4nnw81186100 0.1 1015812
15:00−3nw5118383 0.1 1016875
18:00−2wnw5119388 0.1 1016551
21:00−2wnw5119195 0.2 1016527
4 march, thu
thu400:00−2w51194100 0.1 1015454
03:00−3w5119298 0.1 1014353
06:00−4wsw5129479 0.0 1012358
09:00−2wsw8148984 0.0 1010508
12:000wsw9178687 0.0 1006687
15:00+1wsw9178394 0.0 1004891
18:000wsw8177796 0.0 1002787
21:00+1wsw8168488 0.0 1002755
5 march, fri
fri500:00+1w71390100 0.2 1002609
03:00−2nw379297 0.3 1004216
06:00−6nnw379398 0.0 1007198
09:00−6nnw239493 0.0 1009128
12:00−4n228975 0.0 1011243
15:00−3n128885 0.0 1012264
18:00−5ne1191100 0.0 101321
21:00−6ese229198 0.0 101429